Flag for Australia Weather past 2 weeks in Perth, Western Australia, Australia

Now
81 °F

Sunny.


Feels Like: 80 °F
Forecast: 62 / 76 °F
Wind: 7 mph from Northeast

Location: Belmont Perth Airport


UV Index: 3 (Moderate)

Visibility: 10 mi


Pressure: 30.07 "Hg

Humidity: 34%

Dew point: 50 °F

Location of PerthLocation

Historic Weather in Perth

°F

Perth temperature yesterday

Maximum temperature yesterday: 79 °F (at 2:30 PM)
Minimum temperature yesterday: 46 °F (at 5:30 AM)
Average temperature yesterday: 63 °F

Past Weeks' High & Low Weather Summary

 TemperatureHumidityPressure
High95 °F (Apr 11, 3:00 PM)100% (Apr 6, 3:30 AM)30.21 "Hg (Apr 6, 3:30 AM)
Low46 °F (Apr 17, 5:30 AM)17% (Apr 3, 2:30 PM)29.74 "Hg (Apr 5, 1:30 PM)
Average72 °F54%30.00 "Hg
* Reported Apr 3 1:00 PM — Apr 18 1:00 PM, Perth, Weather by CustomWeather, © 2014

Note: Actual official high and low records may vary slightly from our data, if they occured in-between our weather recording intervals... More about our weather records

Advertising

Historic Weather Conditions — Data for Previous 24 hours

 ConditionsComfort  
Time TempWeatherWind HumidityBarometerVisibility
1:00 PM
Apr 18
79 °FSunny.7 mph37%30.07 "Hg10 mi
12:30 PM77 °FSunny.9 mph39%30.09 "Hg10 mi
12:00 PM77 °FSunny.12 mph39%30.09 "Hg10 mi
11:30 AM73 °FSunny.13 mph47%30.12 "Hg10 mi
11:00 AM73 °FSunny.14 mph47%30.12 "Hg10 mi
10:30 AM72 °FSunny.13 mph50%30.12 "Hg10 mi
10:00 AM72 °FSunny.14 mph50%30.15 "Hg10 mi
9:30 AM70 °FSunny.15 mph53%30.15 "Hg10 mi
9:00 AM66 °FSunny.14 mph60%30.15 "Hg10 mi
8:00 AM63 °FSunny.22 mph68%30.15 "Hg10 mi
7:00 AM61 °FSunny.20 mph77%30.15 "Hg10 mi
6:30 AM61 °FSunny.21 mph77%30.15 "Hg10 mi
6:00 AM63 °FSunny.21 mph68%30.15 "Hg10 mi
5:30 AM63 °FClear.21 mph68%30.15 "Hg10 mi
5:00 AM63 °FClear.22 mph68%30.15 "Hg10 mi
4:30 AM63 °FClear.21 mph68%30.12 "Hg10 mi
4:00 AM63 °FClear.20 mph64%30.12 "Hg10 mi
3:30 AM63 °FClear.21 mph64%30.12 "Hg10 mi
3:00 AM64 °FClear.23 mph60%30.12 "Hg10 mi
2:56 AM64 °FClear.22 mph60%30.12 "Hg10 mi
2:30 AM64 °FClear.8 mph60%30.15 "Hg10 mi
2:00 AM63 °FClear.10 mph64%30.15 "Hg10 mi
1:00 AM55 °FClear.5 mph94%30.15 "Hg10 mi
12:00 AM57 °FClear.8 mph94%30.15 "Hg10 mi
11:30 PM
Apr 17
59 °FClear.7 mph88%30.18 "Hg10 mi
11:00 PM61 °FClear.6 mph83%30.18 "Hg10 mi
10:30 PM63 °FClear.7 mph83%30.18 "Hg10 mi
10:00 PM64 °FClear.7 mph78%30.18 "Hg10 mi
9:30 PM66 °FClear.8 mph73%30.18 "Hg10 mi
9:00 PM66 °FClear.9 mph73%30.18 "Hg10 mi
8:30 PM66 °FClear.10 mph73%30.18 "Hg10 mi
8:00 PM68 °FClear.15 mph69%30.18 "Hg10 mi
7:30 PM68 °FClear.14 mph64%30.15 "Hg10 mi
7:00 PM68 °FClear.16 mph64%30.15 "Hg10 mi
6:30 PM70 °FClear.15 mph57%30.15 "Hg10 mi
6:00 PM72 °FClear.13 mph57%30.12 "Hg10 mi
5:30 PM72 °FClear.13 mph57%30.12 "Hg10 mi
5:00 PM73 °FPassing clouds.13 mph53%30.12 "HgN/A
4:30 PM73 °FPartly sunny.16 mph53%30.12 "HgN/A
4:00 PM77 °FPartly sunny.14 mph39%30.12 "HgN/A
3:00 PM79 °FPartly sunny.12 mph34%30.12 "HgN/A
2:30 PM79 °FPartly sunny.13 mph34%30.12 "HgN/A
2:00 PM77 °FPartly sunny.15 mph39%30.12 "HgN/A
Weather by CustomWeather, © 2014

See weather overview